CW6099 Weather Reports


Display with metric or nautical units.
time (UTC)temp
F
wind
direction
speed
MPH
gust
MPH
rain 1hr
in
rain 24hr
in
rain mn
in
humidity
%
barometer
mb
20260905004247 86 206 8.0 13.0 0.00 0.00 0.00 47 1012.9
20260905004140 86 200 7.0 13.0 0.00 0.00 0.00 46 1012.9
20260905003650 87 188 7.0 16.0 0.00 0.00 0.00 47 1013.0
20260905003246 87 175 9.0 18.0 0.00 0.00 0.00 45 1012.9
20260905003157 87 221 11.0 18.0 0.00 0.00 0.00 45 1012.9
20260905002645 87 210 12.0 18.0 0.00 0.00 0.00 47 1013.0
20260905002305 87 191 12.0 20.0 0.00 0.00 0.00 46 1013.0
20260905002153 87 199 13.0 20.0 0.00 0.00 0.00 46 1013.0
20260905001644 88 184 15.0 31.0 0.00 0.00 0.00 44 1013.0
20260905001241 88 181 20.0 31.0 0.00 0.00 0.00 44 1012.9
20260905001158 88 215 22.0 32.0 0.00 0.00 0.00 44 1012.9
20260905000648 89 178 20.0 34.0 0.00 0.00 0.00 43 1012.7
20260905000244 90 175 17.0 26.0 0.00 0.00 0.00 41 1012.8
20260905000157 91 177 17.0 26.0 0.00 0.00 0.00 41 1012.9
20260904235706 92 190 16.0 28.0 0.00 0.00 0.00 40 1012.8
20260904235242 93 184 7.0 15.0 0.00 0.00 0.00 40 1012.7
20260904235154 93 124 7.0 12.0 0.00 0.00 0.00 40 1012.6
20260904234644 93 154 8.0 12.0 0.00 0.00 0.00 38 1012.4
20260904234240 93 172 6.0 11.0 0.00 0.00 0.00 39 1012.4
20260904234154 93 142 6.0 11.0 0.00 0.00 0.00 39 1012.4
20260904233643 93 158 5.0 11.0 0.00 0.00 0.00 38 1012.4
20260904233239 94 348 3.0 9.0 0.00 0.00 0.00 38 1012.4
20260904233152 94 167 4.0 9.0 0.00 0.00 0.00 38 1012.4
20260904232640 94 167 4.0 8.0 0.00 0.00 0.00 39 1012.4
20260904232256 94 187 4.0 8.0 0.00 0.00 0.00 39 1012.4
20260904232149 94 134 5.0 8.0 0.00 0.00 0.00 37 1012.4
20260904231643 94 159 6.0 8.0 0.00 0.00 0.00 37 1012.5
20260904231241 95 143 3.0 7.0 0.00 0.00 0.00 37 1012.4
20260904231153 95 144 2.0 7.0 0.00 0.00 0.00 37 1012.4
20260904230642 95 240 3.0 7.0 0.00 0.00 0.00 36 1012.3
20260904230238 96 134 2.0 3.0 0.00 0.00 0.00 37 1012.2
20260904230152 96 155 2.0 3.0 0.00 0.00 0.00 36 1012.2
20260904225642 96 225 1.0 3.0 0.00 0.00 0.00 33 1012.1
20260904225238 96 225 0.0 5.0 0.00 0.00 0.00 35 1012.1
20260904225151 96 225 0.0 5.0 0.00 0.00 0.00 35 1012.0
20260904224641 97 225 4.0 5.0 0.00 0.00 0.00 34 1012.0
20260904224239 97 234 2.0 3.0 0.00 0.00 0.00 34 1012.1
20260904224212 97 235 3.0 3.0 0.00 0.00 0.00 33 1012.1
20260904223640 97 215 1.0 5.0 0.00 0.00 0.00 32 1012.1
20260904223257 97 269 3.0 5.0 0.00 0.00 0.00 34 1012.0
20260904223149 97 255 1.0 5.0 0.00 0.00 0.00 32 1012.0
20260904222643 98 270 3.0 7.0 0.00 0.00 0.00 34 1012.1
20260904222240 98 235 4.0 7.0 0.00 0.00 0.00 34 1012.1
20260904222213 98 254 5.0 7.0 0.00 0.00 0.00 34 1012.1
20260904221640 98 229 3.0 5.0 0.00 0.00 0.00 35 1012.1
20260904221312 98 209 4.0 5.0 0.00 0.00 0.00 33 1012.1
20260904221208 98 235 3.0 6.0 0.00 0.00 0.00 32 1012.1
20260904220657 98 260 2.0 7.0 0.00 0.00 0.00 35 1012.1
20260904220314 98 229 4.0 9.0 0.00 0.00 0.00 34 1012.1
20260904220146 98 275 5.0 9.0 0.00 0.00 0.00 36 1012.1
20260904215715 98 231 5.0 9.0 0.00 0.00 0.00 35 1012.1
20260904215250 98 275 5.0 8.0 0.00 0.00 0.00 34 1012.1
20260904215143 98 227 5.0 8.0 0.00 0.00 0.00 33 1012.2
20260904214651 98 298 3.0 10.0 0.00 0.00 0.00 37 1012.1
20260904214247 98 309 4.0 10.0 0.00 0.00 0.00 34 1012.1
20260904214140 98 270 5.0 10.0 0.00 0.00 0.00 34 1012.1
20260904213650 98 177 1.0 4.0 0.00 0.00 0.00 33 1012.1
20260904213247 98 129 2.0 4.0 0.00 0.00 0.00 33 1012.1
20260904213159 98 136 2.0 4.0 0.00 0.00 0.00 33 1012.1
20260904212648 98 281 1.0 5.0 0.00 0.00 0.00 32 1012.1
20260904212245 98 192 3.0 7.0 0.00 0.00 0.00 35 1012.1
20260904212142 98 181 3.0 7.0 0.00 0.00 0.00 34 1012.1
20260904211652 97 204 3.0 7.0 0.00 0.00 0.00 32 1012.3
20260904211248 97 200 4.0 8.0 0.00 0.00 0.00 35 1012.3
20260904211141 97 193 4.0 9.0 0.00 0.00 0.00 35 1012.2
20260904210712 97 227 5.0 9.0 0.00 0.00 0.00 34 1012.3
20260904210246 98 244 5.0 7.0 0.00 0.00 0.00 36 1012.3
20260904210139 98 216 5.0 8.0 0.00 0.00 0.00 33 1012.4
20260904205649 98 144 2.0 11.0 0.00 0.00 0.00 32 1012.3
20260904205306 99 175 6.0 11.0 0.00 0.00 0.00 32 1012.4
20260904205216 99 160 6.0 11.0 0.00 0.00 0.00 33 1012.4
20260904204645 99 188 2.0 11.0 0.00 0.00 0.00 34 1012.5
20260904204241 99 146 6.0 11.0 0.00 0.00 0.00 33 1012.5
20260904204153 99 137 7.0 11.0 0.00 0.00 0.00 34 1012.6
20260904203642 99 171 7.0 14.0 0.00 0.00 0.00 33 1012.6
20260904203318 99 204 7.0 14.0 0.00 0.00 0.00 32 1012.7
20260904203149 99 186 9.0 14.0 0.00 0.00 0.00 34 1012.7
20260904202657 98 140 8.0 12.0 0.00 0.00 0.00 35 1012.7
20260904202254 98 136 5.0 14.0 0.00 0.00 0.00 34 1012.7
20260904202207 98 142 3.0 15.0 0.00 0.00 0.00 35 1012.7
20260904201716 98 97 6.0 15.0 0.00 0.00 0.00 36 1012.7
20260904201249 98 130 5.0 13.0 0.00 0.00 0.00 36 1012.7
20260904201206 98 148 5.0 13.0 0.00 0.00 0.00 36 1012.8
20260904200654 97 329 5.0 13.0 0.00 0.00 0.00 39 1012.8
20260904200307 97 138 4.0 14.0 0.00 0.00 0.00 36 1012.8
20260904200144 97 162 6.0 15.0 0.00 0.00 0.00 40 1012.9
20260904195653 96 142 9.0 15.0 0.00 0.00 0.00 38 1012.9
20260904195251 96 140 7.0 14.0 0.00 0.00 0.00 40 1012.9
20260904195202 96 146 6.0 14.0 0.00 0.00 0.00 39 1013.0
20260904194651 95 182 10.0 14.0 0.00 0.00 0.00 38 1013.0
20260904194248 95 174 7.0 14.0 0.00 0.00 0.00 40 1013.0
20260904194201 95 147 7.0 14.0 0.00 0.00 0.00 42 1013.0
20260904193649 95 92 8.0 14.0 0.00 0.00 0.00 40 1013.1
20260904193246 95 145 8.0 15.0 0.00 0.00 0.00 41 1013.1
20260904193139 95 136 8.0 14.0 0.00 0.00 0.00 39 1013.0
20260904192651 94 163 6.0 13.0 0.00 0.00 0.00 41 1013.1
20260904192247 94 156 9.0 13.0 0.00 0.00 0.00 42 1013.1
20260904192140 94 149 9.0 13.0 0.00 0.00 0.00 41 1013.1
20260904191655 94 138 7.0 14.0 0.00 0.00 0.00 42 1013.1
20260904191246 95 138 10.0 14.0 0.00 0.00 0.00 41 1013.2
20260904191142 95 117 10.0 14.0 0.00 0.00 0.00 41 1013.2
20260904190651 95 128 8.0 13.0 0.00 0.00 0.00 43 1013.2
20260904190247 95 140 6.0 12.0 0.00 0.00 0.00 41 1013.3
20260904190219 95 163 6.0 12.0 0.00 0.00 0.00 43 1013.3
20260904185708 96 160 8.0 15.0 0.00 0.00 0.00 42 1013.3
20260904185244 96 181 9.0 15.0 0.00 0.00 0.00 40 1013.3
20260904185157 96 134 9.0 15.0 0.00 0.00 0.00 41 1013.3
20260904184648 96 176 5.0 14.0 0.00 0.00 0.00 37 1013.3
20260904184244 96 158 7.0 14.0 0.00 0.00 0.00 38 1013.4
20260904184156 95 153 9.0 14.0 0.00 0.00 0.00 39 1013.4
20260904183707 95 148 6.0 9.0 0.00 0.00 0.00 40 1013.4
20260904183242 94 204 5.0 10.0 0.00 0.00 0.00 38 1013.4
20260904183155 94 186 5.0 10.0 0.00 0.00 0.00 39 1013.4
20260904182644 94 190 7.0 10.0 0.00 0.00 0.00 40 1013.5
20260904182240 94 192 5.0 7.0 0.00 0.00 0.00 38 1013.6
20260904182157 94 205 5.0 9.0 0.00 0.00 0.00 38 1013.6
20260904181647 94 219 2.0 7.0 0.00 0.00 0.00 39 1013.7
20260904181243 93 213 3.0 9.0 0.00 0.00 0.00 42 1013.6
20260904181156 93 206 4.0 9.0 0.00 0.00 0.00 41 1013.6
20260904180646 93 207 6.0 9.0 0.00 0.00 0.00 40 1013.7
20260904180256 93 178 6.0 8.0 0.00 0.00 0.00 41 1013.7
20260904180148 93 143 5.0 9.0 0.00 0.00 0.00 40 1013.8
20260904175718 92 159 6.0 10.0 0.00 0.00 0.00 40 1013.8
20260904175255 92 198 6.0 12.0 0.00 0.00 0.00 43 1013.9
20260904175207 92 192 7.0 12.0 0.00 0.00 0.00 43 1013.9
20260904174656 92 182 8.0 12.0 0.00 0.00 0.00 45 1014.0
20260904174253 91 225 6.0 10.0 0.00 0.00 0.00 46 1014.0
20260904174146 91 257 6.0 10.0 0.00 0.00 0.00 45 1014.0
20260904173657 90 223 5.0 10.0 0.00 0.00 0.00 45 1014.1
20260904173253 88 182 6.0 11.0 0.00 0.00 0.00 51 1014.1
20260904173207 88 236 6.0 9.0 0.00 0.00 0.00 52 1014.1
20260904172659 87 228 7.0 12.0 0.00 0.00 0.00 51 1014.1
20260904172252 87 186 6.0 12.0 0.00 0.00 0.00 49 1014.1
20260904172219 87 220 7.0 12.0 0.00 0.00 0.00 49 1014.1
20260904171709 87 198 8.0 12.0 0.00 0.00 0.00 48 1014.1
20260904171244 87 179 8.0 12.0 0.00 0.00 0.00 50 1014.0
20260904171158 87 197 8.0 12.0 0.00 0.00 0.00 50 1014.0
20260904170647 87 190 7.0 11.0 0.00 0.00 0.00 50 1013.9
20260904170244 87 236 8.0 11.0 0.00 0.00 0.00 52 1013.9
20260904170157 86 219 8.0 11.0 0.00 0.00 0.00 51 1013.8
20260904165708 86 194 9.0 13.0 0.00 0.00 0.00 53 1013.9
20260904165242 85 211 8.0 11.0 0.00 0.00 0.00 55 1013.9
20260904165153 85 204 7.0 11.0 0.00 0.00 0.00 53 1013.9
20260904164703 84 199 8.0 11.0 0.00 0.00 0.00 53 1013.9
20260904164320 83 175 5.0 11.0 0.00 0.00 0.00 57 1014.0
20260904164211 83 191 5.0 11.0 0.00 0.00 0.00 57 1013.9
20260904163639 81 206 7.0 11.0 0.00 0.00 0.00 58 1014.0
20260904163256 81 228 7.0 12.0 0.00 0.00 0.00 60 1014.0
20260904163150 81 206 6.0 12.0 0.00 0.00 0.00 60 1014.0
20260904162658 80 234 9.0 12.0 0.00 0.00 0.00 60 1014.0
20260904162254 80 193 7.0 14.0 0.00 0.00 0.00 62 1013.9
20260904162207 80 209 7.0 14.0 0.00 0.00 0.00 62 1013.8
20260904161658 80 223 11.0 14.0 0.00 0.00 0.00 61 1013.7
20260904161250 80 232 8.0 12.0 0.00 0.00 0.00 60 1013.6
20260904161146 80 234 8.0 12.0 0.00 0.00 0.00 59 1013.6
20260904160657 81 260 8.0 11.0 0.00 0.00 0.00 57 1013.7
20260904160253 81 238 2.0 12.0 0.00 0.00 0.00 54 1013.7
20260904160206 82 123 2.0 13.0 0.00 0.00 0.00 53 1013.7
20260904155656 82 279 8.0 34.0 0.00 0.00 0.00 49 1013.7
20260904155311 82 45 8.0 34.0 0.00 0.00 0.00 47 1013.1
20260904155142 81 136 10.0 34.0 0.00 0.00 0.00 42 1013.1
20260904154651 78 169 14.0 17.0 0.00 0.00 0.00 62 1013.7
20260904154244 78 200 9.0 12.0 0.00 0.00 0.00 60 1013.8
20260904154156 78 192 8.0 12.0 0.00 0.00 0.00 61 1013.8
20260904153646 78 244 7.0 12.0 0.00 0.00 0.00 61 1013.8
20260904153302 78 205 7.0 12.0 0.00 0.00 0.00 62 1013.9
20260904153154 78 215 7.0 12.0 0.00 0.00 0.00 61 1013.8
20260904152642 78 198 9.0 14.0 0.00 0.00 0.00 61 1013.8
20260904152259 78 200 8.0 14.0 0.00 0.00 0.00 61 1013.8
20260904152212 78 198 8.0 17.0 0.00 0.00 0.00 61 1013.8
20260904151645 78 192 11.0 17.0 0.00 0.00 0.00 60 1013.8
20260904151257 77 193 10.0 13.0 0.00 0.00 0.00 61 1013.8
20260904151155 77 203 9.0 13.0 0.00 0.00 0.00 61 1013.8
20260904150644 77 209 9.0 16.0 0.00 0.00 0.00 62 1013.7
20260904150240 77 196 10.0 16.0 0.00 0.00 0.00 61 1013.7
20260904150154 77 188 10.0 16.0 0.00 0.00 0.00 61 1013.7
20260904145644 77 215 11.0 16.0 0.00 0.00 0.00 61 1013.7
20260904145240 77 202 10.0 17.0 0.00 0.00 0.00 61 1013.7
20260904145154 77 188 11.0 17.0 0.00 0.00 0.00 61 1013.7
20260904144644 77 196 13.0 18.0 0.00 0.00 0.00 61 1013.6
20260904144320 77 224 11.0 18.0 0.00 0.00 0.00 62 1013.6
20260904144151 77 202 11.0 18.0 0.00 0.00 0.00 62 1013.6
20260904143721 77 185 11.0 17.0 0.00 0.00 0.00 63 1013.5
20260904143255 77 199 12.0 17.0 0.00 0.00 0.00 63 1013.4
20260904143146 77 193 12.0 22.0 0.00 0.00 0.00 63 1013.5
20260904142656 77 188 12.0 22.0 0.00 0.00 0.00 63 1013.5
20260904142253 77 198 15.0 20.0 0.00 0.00 0.00 62 1013.4
20260904142150 77 177 14.0 20.0 0.00 0.00 0.00 62 1013.4
20260904141640 77 188 13.0 23.0 0.00 0.00 0.00 63 1013.5
20260904141256 76 215 14.0 23.0 0.00 0.00 0.00 64 1013.4
20260904141150 76 201 14.0 20.0 0.00 0.00 0.00 64 1013.4
20260904140700 75 215 14.0 19.0 0.00 0.00 0.00 65 1013.4
20260904140256 75 155 12.0 20.0 0.00 0.00 0.00 66 1013.4
20260904140209 75 178 14.0 21.0 0.00 0.00 0.00 66 1013.3
20260904135717 74 166 15.0 21.0 0.00 0.00 0.00 68 1013.3
20260904135252 73 187 14.0 19.0 0.00 0.00 0.00 68 1013.3
20260904135145 73 173 15.0 20.0 0.00 0.00 0.00 69 1013.3
20260904134656 72 171 13.0 18.0 0.00 0.00 0.00 70 1013.3
20260904134253 72 175 15.0 19.0 0.00 0.00 0.00 70 1013.3
20260904134206 72 153 14.0 22.0 0.00 0.00 0.00 70 1013.3
20260904133655 71 178 13.0 19.0 0.00 0.00 0.00 71 1013.1
20260904133250 71 178 14.0 20.0 0.00 0.00 0.00 73 1013.2
20260904133142 71 154 14.0 16.0 0.00 0.00 0.00 73 1013.2
20260904132653 70 169 12.0 16.0 0.00 0.00 0.00 75 1013.1
20260904132244 69 161 11.0 15.0 0.00 0.00 0.00 76 1013.1
20260904132201 69 179 9.0 12.0 0.00 0.00 0.00 76 1013.1
20260904131648 68 198 11.0 12.0 0.00 0.00 0.00 76 1013.1
20260904131245 68 172 10.0 13.0 0.00 0.00 0.00 76 1013.1
20260904131155 68 177 10.0 12.0 0.00 0.00 0.00 76 1013.0
20260904130645 68 180 10.0 12.0 0.00 0.00 0.00 77 1013.1
20260904130241 67 186 10.0 12.0 0.00 0.00 0.00 78 1013.0
20260904130153 67 177 10.0 14.0 0.00 0.00 0.00 78 1013.0
20260904125642 67 192 8.0 12.0 0.00 0.00 0.00 78 1012.9
20260904125259 67 176 10.0 12.0 0.00 0.00 0.00 78 1012.8
20260904125148 67 162 9.0 13.0 0.00 0.00 0.00 78 1012.9
20260904124658 67 180 9.0 13.0 0.00 0.00 0.00 78 1012.8
20260904124254 67 189 10.0 13.0 0.00 0.00 0.00 78 1012.8
20260904124147 67 178 10.0 14.0 0.00 0.00 0.00 78 1012.8
20260904123641 67 173 11.0 15.0 0.00 0.00 0.00 78 1012.8
20260904123254 67 197 9.0 15.0 0.00 0.00 0.00 77 1012.8
20260904123151 67 167 9.0 15.0 0.00 0.00 0.00 77 1012.8
20260904122700 67 171 11.0 15.0 0.00 0.00 0.00 77 1012.7
20260904122315 67 157 10.0 14.0 0.00 0.00 0.00 77 1012.7
20260904122207 67 176 10.0 13.0 0.00 0.00 0.00 77 1012.7
20260904121656 67 155 9.0 13.0 0.00 0.00 0.00 77 1012.6
20260904121253 67 172 9.0 13.0 0.00 0.00 0.00 76 1012.6
20260904121145 67 178 9.0 13.0 0.00 0.00 0.00 76 1012.5
20260904120654 67 140 10.0 13.0 0.00 0.00 0.00 76 1012.5
20260904120251 67 158 9.0 15.0 0.00 0.00 0.00 76 1012.5
20260904120143 67 160 9.0 13.0 0.00 0.00 0.00 76 1012.5
20260904115653 67 147 9.0 14.0 0.00 0.00 0.00 76 1012.4
20260904115250 68 159 10.0 14.0 0.00 0.00 0.00 76 1012.4
20260904115143 68 143 9.0 13.0 0.00 0.00 0.00 76 1012.4
20260904114657 68 140 9.0 15.0 0.00 0.00 0.00 76 1012.4
20260904114250 68 164 9.0 15.0 0.00 0.00 0.00 76 1012.5
20260904114147 68 152 9.0 15.0 0.00 0.00 0.00 76 1012.5
20260904113658 68 161 8.0 14.0 0.00 0.00 0.00 75 1012.4
20260904113314 68 182 8.0 14.0 0.00 0.00 0.00 75 1012.4
20260904113144 68 169 8.0 14.0 0.00 0.00 0.00 75 1012.4
20260904112654 68 151 9.0 14.0 0.00 0.00 0.00 75 1012.5
20260904112251 68 147 9.0 14.0 0.00 0.00 0.00 75 1012.5
20260904112204 68 155 10.0 14.0 0.00 0.00 0.00 75 1012.4
20260904111652 68 148 9.0 13.0 0.00 0.00 0.00 75 1012.5
20260904111248 68 171 8.0 11.0 0.00 0.00 0.00 75 1012.6
20260904111202 68 171 7.0 11.0 0.00 0.00 0.00 75 1012.5
20260904110649 68 150 9.0 11.0 0.00 0.00 0.00 75 1012.6
20260904110244 69 159 9.0 11.0 0.00 0.00 0.00 75 1012.6
20260904110157 69 147 8.0 11.0 0.00 0.00 0.00 75 1012.6
20260904105707 69 148 8.0 12.0 0.00 0.00 0.00 75 1012.7
20260904105322 69 140 8.0 11.0 0.00 0.00 0.00 74 1012.7
20260904105152 69 150 8.0 11.0 0.00 0.00 0.00 74 1012.6
20260904104645 69 149 8.0 11.0 0.00 0.00 0.00 74 1012.7
20260904104258 70 146 8.0 11.0 0.00 0.00 0.00 73 1012.7
20260904104214 70 158 8.0 11.0 0.00 0.00 0.00 73 1012.7
20260904103642 70 144 8.0 10.0 0.00 0.00 0.00 72 1012.7
20260904103313 70 178 8.0 10.0 0.00 0.00 0.00 72 1012.7
20260904103148 70 151 8.0 11.0 0.00 0.00 0.00 72 1012.7
20260904102718 70 153 8.0 12.0 0.00 0.00 0.00 72 1012.6
20260904102251 70 155 7.0 12.0 0.00 0.00 0.00 72 1012.6
20260904102145 70 196 8.0 12.0 0.00 0.00 0.00 72 1012.6
20260904101655 70 159 8.0 12.0 0.00 0.00 0.00 71 1012.6
20260904101251 70 141 8.0 12.0 0.00 0.00 0.00 71 1012.6
20260904101203 70 134 8.0 12.0 0.00 0.00 0.00 71 1012.6
20260904100652 71 155 8.0 12.0 0.00 0.00 0.00 70 1012.6
20260904100249 71 140 7.0 12.0 0.00 0.00 0.00 70 1012.6
20260904100201 71 142 8.0 12.0 0.00 0.00 0.00 70 1012.6
20260904095649 71 129 8.0 10.0 0.00 0.00 0.00 69 1012.6
20260904095246 71 170 7.0 10.0 0.00 0.00 0.00 69 1012.6
20260904095159 71 153 7.0 10.0 0.00 0.00 0.00 69 1012.6
20260904094654 72 155 7.0 10.0 0.00 0.00 0.00 68 1012.6
20260904094305 72 155 6.0 9.0 0.00 0.00 0.00 68 1012.6
20260904094200 72 127 6.0 9.0 0.00 0.00 0.00 68 1012.6
20260904093650 72 180 7.0 12.0 0.00 0.00 0.00 67 1012.6
20260904093246 72 177 7.0 12.0 0.00 0.00 0.00 67 1012.5
20260904093200 72 150 7.0 12.0 0.00 0.00 0.00 67 1012.4
20260904092649 72 175 9.0 12.0 0.00 0.00 0.00 67 1012.4
20260904092244 72 163 9.0 15.0 0.00 0.00 0.00 67 1012.3
20260904092216 72 146 9.0 15.0 0.00 0.00 0.00 67 1012.3
20260904091645 72 192 10.0 15.0 0.00 0.00 0.00 67 1012.3
20260904091259 72 169 10.0 15.0 0.00 0.00 0.00 67 1012.3
20260904091151 72 150 10.0 15.0 0.00 0.00 0.00 67 1012.3
20260904090642 72 161 9.0 13.0 0.00 0.00 0.00 67 1012.3
20260904090258 72 183 9.0 14.0 0.00 0.00 0.00 67 1012.3
20260904090151 72 144 9.0 14.0 0.00 0.00 0.00 67 1012.3
20260904085700 72 190 10.0 15.0 0.00 0.00 0.00 67 1012.3
20260904085316 72 148 9.0 15.0 0.00 0.00 0.00 67 1012.3
20260904085145 72 146 8.0 14.0 0.00 0.00 0.00 67 1012.3
20260904084700 72 140 9.0 15.0 0.00 0.00 0.00 67 1012.3
20260904084252 72 162 10.0 16.0 0.00 0.00 0.00 68 1012.3
20260904084209 72 164 9.0 16.0 0.00 0.00 0.00 67 1012.4
20260904083659 72 151 11.0 16.0 0.00 0.00 0.00 68 1012.4
20260904083255 72 151 9.0 12.0 0.00 0.00 0.00 67 1012.4
20260904083148 72 164 9.0 12.0 0.00 0.00 0.00 68 1012.4
20260904082656 72 136 9.0 14.0 0.00 0.00 0.00 67 1012.4
20260904082254 72 161 8.0 14.0 0.00 0.00 0.00 67 1012.4
20260904082147 72 150 9.0 14.0 0.00 0.00 0.00 67 1012.4
20260904081716 72 134 8.0 12.0 0.00 0.00 0.00 66 1012.5
20260904081310 72 150 9.0 13.0 0.00 0.00 0.00 66 1012.4
20260904081203 72 162 8.0 11.0 0.00 0.00 0.00 66 1012.4
20260904080652 73 149 8.0 12.0 0.00 0.00 0.00 66 1012.6
20260904080249 73 122 8.0 12.0 0.00 0.00 0.00 66 1012.6
20260904080141 73 146 9.0 13.0 0.00 0.00 0.00 65 1012.6
20260904075712 73 177 8.0 13.0 0.00 0.00 0.00 65 1012.7
20260904075248 73 172 8.0 14.0 0.00 0.00 0.00 65 1012.7
20260904075141 73 144 9.0 14.0 0.00 0.00 0.00 65 1012.7
20260904074711 73 154 10.0 15.0 0.00 0.00 0.00 65 1012.8
20260904074246 73 125 11.0 16.0 0.00 0.00 0.00 65 1012.8
20260904074204 73 132 11.0 16.0 0.00 0.00 0.00 65 1012.9
20260904073653 73 155 12.0 16.0 0.00 0.00 0.00 65 1013.0
20260904073305 73 144 11.0 15.0 0.00 0.00 0.00 65 1012.9
20260904073141 73 165 10.0 15.0 0.00 0.00 0.00 65 1013.0
20260904072651 72 149 11.0 15.0 0.00 0.00 0.00 66 1013.0
20260904072247 72 103 11.0 15.0 0.00 0.00 0.00 66 1012.8
20260904072200 72 157 10.0 15.0 0.00 0.00 0.00 66 1012.8
20260904071650 72 161 7.0 12.0 0.00 0.00 0.00 67 1012.7
20260904071247 72 144 7.0 10.0 0.00 0.00 0.00 68 1012.7
20260904071220 72 158 7.0 9.0 0.00 0.00 0.00 68 1012.7
20260904070649 71 150 6.0 10.0 0.00 0.00 0.00 68 1012.6
20260904070245 71 155 8.0 11.0 0.00 0.00 0.00 69 1012.6
20260904070219 71 137 7.0 11.0 0.00 0.00 0.00 69 1012.7
20260904065648 71 155 7.0 11.0 0.00 0.00 0.00 70 1012.8
20260904065244 72 145 8.0 10.0 0.00 0.00 0.00 70 1012.8
20260904065156 72 130 8.0 10.0 0.00 0.00 0.00 70 1012.8
20260904064646 72 138 4.0 8.0 0.00 0.00 0.00 70 1012.8
20260904064240 71 125 4.0 8.0 0.00 0.00 0.00 70 1012.8
20260904064214 71 155 4.0 8.0 0.00 0.00 0.00 71 1012.9
20260904063706 71 202 3.0 7.0 0.00 0.00 0.00 71 1012.8
20260904063316 71 194 3.0 6.0 0.00 0.00 0.00 71 1012.9
20260904063152 71 157 3.0 6.0 0.00 0.00 0.00 71 1012.9
20260904062702 71 153 3.0 6.0 0.00 0.00 0.00 72 1012.9
20260904062253 71 161 3.0 5.0 0.00 0.00 0.00 71 1012.9
20260904062150 71 151 3.0 6.0 0.00 0.00 0.00 71 1012.9
20260904061700 71 167 4.0 7.0 0.00 0.00 0.00 72 1013.0
20260904061256 71 138 3.0 7.0 0.00 0.00 0.00 72 1013.0
20260904061148 71 111 3.0 7.0 0.00 0.00 0.00 72 1013.0
20260904060718 71 138 3.0 6.0 0.00 0.00 0.00 72 1013.0
20260904060314 71 104 2.0 7.0 0.00 0.00 0.00 72 1013.0
20260904060207 71 140 3.0 7.0 0.00 0.00 0.00 72 1013.0
20260904055655 71 74 4.0 7.0 0.00 0.00 0.00 72 1013.0
20260904055253 71 92 3.0 7.0 0.00 0.00 0.00 72 1013.0
20260904055145 71 28 3.0 7.0 0.00 0.00 0.00 72 1013.0
20260904054655 71 68 4.0 8.0 0.00 0.00 0.00 71 1013.0
20260904054252 71 83 6.0 8.0 0.00 0.00 0.00 71 1013.0
20260904054144 71 82 6.0 8.0 0.00 0.00 0.00 71 1013.0
20260904053711 72 87 4.0 9.0 0.00 0.00 0.00 71 1013.0
20260904053244 72 65 5.0 9.0 0.00 0.00 0.00 71 1013.0
20260904053155 72 92 5.0 9.0 0.00 0.00 0.00 70 1013.0
20260904052649 72 88 3.0 10.0 0.00 0.00 0.00 70 1013.0
20260904052321 72 86 5.0 10.0 0.00 0.00 0.00 69 1012.9
20260904052156 72 79 4.0 10.0 0.00 0.00 0.00 69 1013.0
20260904051706 73 80 6.0 11.0 0.00 0.00 0.00 69 1012.7
20260904051257 73 88 9.0 11.0 0.00 0.00 0.00 68 1012.7
20260904051153 73 73 9.0 11.0 0.00 0.00 0.00 68 1012.7
20260904050643 73 116 8.0 10.0 0.00 0.00 0.00 68 1012.8
20260904050259 73 80 8.0 10.0 0.00 0.00 0.00 68 1012.7
20260904050152 73 84 8.0 10.0 0.00 0.00 0.00 68 1012.7
20260904045641 72 82 7.0 10.0 0.00 0.00 0.00 69 1012.8
20260904045258 72 92 7.0 10.0 0.00 0.00 0.00 69 1012.8
20260904045151 72 88 7.0 10.0 0.00 0.00 0.00 69 1012.9
20260904044701 71 109 3.0 11.0 0.00 0.00 0.00 70 1013.0
20260904044257 71 165 5.0 12.0 0.00 0.00 0.00 69 1013.2
20260904044208 71 136 4.0 12.0 0.00 0.00 0.00 69 1013.1
20260904043717 72 146 8.0 11.0 0.00 0.00 0.00 68 1013.3
20260904043253 72 155 9.0 11.0 0.00 0.00 0.00 67 1013.3
20260904043207 72 144 9.0 11.0 0.00 0.00 0.00 67 1013.2
20260904042656 73 148 3.0 8.0 0.00 0.00 0.00 66 1013.1
20260904042250 74 161 3.0 9.0 0.00 0.00 0.00 64 1013.1
20260904042146 74 44 3.0 9.0 0.00 0.00 0.00 64 1013.1
20260904041654 74 91 7.0 9.0 0.00 0.00 0.00 63 1013.1
20260904041250 74 81 6.0 9.0 0.00 0.00 0.00 62 1013.2
20260904041143 74 111 6.0 9.0 0.00 0.00 0.00 62 1013.1
20260904040650 74 106 7.0 9.0 0.00 0.00 0.00 61 1013.1
20260904040247 74 83 7.0 9.0 0.00 0.00 0.00 61 1013.1
20260904040220 74 83 7.0 9.0 0.00 0.00 0.00 61 1013.2
20260904035648 75 88 7.0 9.0 0.00 0.00 0.00 60 1013.1
20260904035243 75 90 7.0 9.0 0.00 0.00 0.00 60 1013.1
20260904035156 75 72 7.0 9.0 0.00 0.00 0.00 60 1013.0
20260904034646 75 89 6.0 10.0 0.00 0.00 0.00 60 1013.0
20260904034243 75 72 7.0 11.0 0.00 0.00 0.00 59 1012.9
20260904034156 75 80 7.0 11.0 0.00 0.00 0.00 59 1012.9
20260904033644 76 94 7.0 12.0 0.00 0.00 0.00 59 1012.9
20260904033241 76 88 8.0 13.0 0.00 0.00 0.00 58 1012.8
20260904033154 76 78 9.0 14.0 0.00 0.00 0.00 58 1012.9
20260904032709 76 71 9.0 14.0 0.00 0.00 0.00 58 1012.8
20260904032300 76 76 9.0 12.0 0.00 0.00 0.00 58 1012.7
20260904032157 76 88 10.0 12.0 0.00 0.00 0.00 58 1012.8
20260904031649 76 69 9.0 12.0 0.00 0.00 0.00 58 1012.7
20260904031245 75 68 9.0 11.0 0.00 0.00 0.00 59 1012.7
20260904031158 75 81 9.0 11.0 0.00 0.00 0.00 59 1012.6
20260904030709 75 86 8.0 11.0 0.00 0.00 0.00 59 1012.7
20260904030304 76 65 7.0 12.0 0.00 0.00 0.00 58 1012.7
20260904030154 76 70 8.0 12.0 0.00 0.00 0.00 58 1012.7
20260904025644 76 61 10.0 12.0 0.00 0.00 0.00 54 1012.7
20260904025258 77 90 9.0 10.0 0.00 0.00 0.00 55 1012.6
20260904025151 77 92 8.0 10.0 0.00 0.00 0.00 55 1012.5
20260904024700 77 101 7.0 10.0 0.00 0.00 0.00 55 1012.4
20260904024317 76 78 7.0 10.0 0.00 0.00 0.00 55 1012.4
20260904024148 77 127 8.0 10.0 0.00 0.00 0.00 55 1012.4
20260904023658 77 70 4.0 10.0 0.00 0.00 0.00 56 1012.3
20260904023316 77 66 7.0 10.0 0.00 0.00 0.00 56 1012.3
20260904023148 77 80 7.0 10.0 0.00 0.00 0.00 56 1012.3
20260904022700 77 92 5.0 9.0 0.00 0.00 0.00 57 1012.3
20260904022253 77 116 5.0 8.0 0.00 0.00 0.00 57 1012.2
20260904022150 77 169 4.0 9.0 0.00 0.00 0.00 57 1012.2
20260904021701 77 82 3.0 9.0 0.00 0.00 0.00 57 1012.1
20260904021257 77 86 7.0 9.0 0.00 0.00 0.00 56 1012.1
20260904021150 77 61 6.0 9.0 0.00 0.00 0.00 56 1012.0
20260904020701 78 96 3.0 7.0 0.00 0.00 0.00 57 1012.0
20260904020257 78 106 4.0 9.0 0.00 0.00 0.00 56 1012.0
20260904020149 78 61 4.0 9.0 0.00 0.00 0.00 56 1011.9
20260904015719 79 100 6.0 9.0 0.00 0.00 0.00 55 1011.8
20260904015254 79 86 7.0 9.0 0.00 0.00 0.00 54 1011.7
20260904015148 79 86 7.0 9.0 0.00 0.00 0.00 54 1011.7
20260904014716 79 63 7.0 9.0 0.00 0.00 0.00 54 1011.7
20260904014252 80 95 7.0 10.0 0.00 0.00 0.00 53 1011.6
20260904014206 80 98 6.0 10.0 0.00 0.00 0.00 53 1011.5
20260904013714 82 60 6.0 10.0 0.00 0.00 0.00 51 1011.5
20260904013248 83 85 6.0 10.0 0.00 0.00 0.00 49 1011.4
20260904013221 83 95 7.0 10.0 0.00 0.00 0.00 48 1011.4
20260904012653 83 80 8.0 10.0 0.00 0.00 0.00 48 1011.4
20260904012246 83 84 8.0 10.0 0.00 0.00 0.00 48 1011.3
20260904012204 83 88 8.0 10.0 0.00 0.00 0.00 48 1011.3
20260904011651 84 81 7.0 10.0 0.00 0.00 0.00 47 1011.3
20260904011249 84 56 8.0 10.0 0.00 0.00 0.00 47 1011.2
20260904011202 84 77 8.0 10.0 0.00 0.00 0.00 47 1011.2
20260904010650 85 84 8.0 10.0 0.00 0.00 0.00 47 1011.2
20260904010246 85 71 7.0 10.0 0.00 0.00 0.00 47 1011.2
20260904010159 86 81 7.0 10.0 0.00 0.00 0.00 46 1011.2
20260904005650 86 85 8.0 9.0 0.00 0.00 0.00 47 1011.2
20260904005246 87 78 6.0 10.0 0.00 0.00 0.00 46 1011.3
20260904005159 87 54 6.0 10.0 0.00 0.00 0.00 45 1011.2
20260904004710 88 71 5.0 10.0 0.00 0.00 0.00 43 1011.3